Cardinia Fun Run
Finisher List
TotalRankBibNameGenderAge GroupTime
10Km Run
1.970Kiarie McIntyremOpen Men0:35:15,60
2.542PETER DUTTONmOpen Men0:36:35,14
3.665Andrew HarrismOpen Men0:42:59,21
4.797Jason BoocockmOpen Men0:43:16,40
5.552CRAIG DRAKEFORDmOpen Men0:43:19,47
6.905Steve MoxhammOpen Men0:43:21,40
7.413Jess BattonwOpen Ladies0:43:24,11
8.550DARREN FITZPATRICKmOpen Men0:43:33,34
9.703Andrew MottmOpen Men0:43:34,73
10.901Michael HaroldmOpen Men0:44:16,03
11.494June PetriewSenior Ladies 50+0:44:28,52
12.504Tim PrydemOpen Men0:44:30,61
13.930Michael SillekensmOpen Men0:44:53,73
14.818Damien PALMERmOpen Men0:45:00,54
15.467James GardmOpen Men0:47:28,27
16.823Roger SevenhuysenmOpen Men0:47:30,18
17.667Luigi DonatomOpen Men0:47:30,36
18.965Jeff LiddellmOpen Men0:47:35,20
19.988Tim GibsonmOpen Men0:47:35,58
20.561Anthony BeckettmOpen Men0:47:41,27
21.594Rob CentonzamSenior Men 50+0:47:41,27
22.690Ravindra HerathmOpen Men0:47:54,26
23.892Daniel GassonmBoys U160:48:13,01
24.622Mary Jo DobellwOpen Ladies0:48:22,61
25.806Gerard CorkeronmOpen Men0:48:23,50
26.921Alina OvadiawOpen Ladies0:48:25,55
27.560BRUCE VENABLESmSenior Men 50+0:48:41,19
28.996Matt RobinsonmSenior Men 50+0:48:42,74
29.975Rick O'ConnormOpen Men0:49:19,24
30.582Tammy BracewOpen Ladies0:49:21,64
31.579Geoff HildermOpen Men0:49:22,12
32.825Jed SevenhuysenmBoys U160:49:23,80
33.846David BeckmOpen Men0:49:26,55
34.886Hayden WestwoodmOpen Men0:49:38,68
35.819Sophie CoughlinwGirls U160:49:45,72
36.684Brian MarshallmSenior Men 50+0:49:49,94
37.749Magor HailumOpen Men0:49:53,21
38.980Stacey BourkewOpen Ladies0:49:53,35
39.480Sam WebstermOpen Men0:50:07,01
40.989Scott GibsonmOpen Men0:50:09,56
41.707Andrew MurphymOpen Men0:50:12,03
42.501Matt LloydmOpen Men0:50:27,22
43.596Joe DannaouimOpen Men0:50:33,38
44.796Jacqueline EarlywOpen Ladies0:50:37,20
45.495Glenn MoloneymOpen Men0:50:46,17
46.436Mark FordmOpen Men0:50:59,91
47.581Jodie CaldwellwOpen Ladies0:51:25,47
48.400Michael SouttermOpen Men0:51:29,78
49.995Geoff LucasmOpen Men0:51:44,49
50.815Catherine MckennawOpen Ladies0:52:26,79
51.840Jessica ThielewOpen Ladies0:52:39,63
52.991Chip MeredithmSenior Men 50+0:52:43,06
53.993Andrew GibsonmOpen Men0:52:49,41
54.716Wesley MannmOpen Men0:52:57,41
55.964Louis ManismOpen Men0:52:59,57
56.792Lars JensenmOpen Men0:53:05,93
57.685Gautam PandeymOpen Men0:53:07,40
58.584Megan HumphryswOpen Ladies0:53:07,57
59.556JACOB KEYSERSmBoys U160:53:17,36
60.985Smith PaulmSenior Men 50+0:53:22,23
61.984Peter SolarimSenior Men 50+0:53:22,46
62.845Claire BeckwSenior Ladies 50+0:53:45,07
63.766Laverick AlfredmOpen Men0:53:56,12
64.482JESS MAWDSLEYmOpen Men0:54:04,61
65.805Tessa DehringwOpen Ladies0:54:18,40
66.663Vaughan de RiggsmSenior Men 50+0:54:32,47
67.817Teneille PalmerwOpen Ladies0:54:50,09
68.668Chrissy ClodewOpen Ladies0:55:01,81
69.580Belinda OrfordwOpen Ladies0:55:04,31
70.664Kim KeyserswOpen Ladies0:55:05,19
71.897Hudson JennermBoys U160:55:18,60
72.405Mia WardalewGirls U160:55:35,47
73.407Lee MawdsleymOpen Men0:56:03,08
74.702Haylee JuddwOpen Ladies0:56:18,47
75.541PAUL DUTTONmSenior Men 50+0:56:19,58
76.649Richard BishopmSenior Men 50+0:56:28,13
77.900Darren D'SylvamOpen Men0:56:44,34
78.412Nikki GrisctiwOpen Ladies0:57:00,12
79.604Zoe BormaniswOpen Ladies0:57:01,16
80.406Brad AbbottmOpen Men0:57:12,28
81.551KIM TEMPLETONwOpen Ladies0:57:24,78
82.708Sharee OwenswSenior Ladies 50+0:57:27,40
83.893Ashleigh GassonwGirls U160:57:38,92
84.653Dean EdwardsmOpen Men0:57:44,22
85.657Shane HaynesmOpen Men0:58:11,96
86.448Robby AllenmOpen Men0:58:37,22
87.546BRETT MCNAMARAmOpen Men0:58:50,80
88.530REBEKAH MIDDLEMASTwOpen Ladies0:58:55,90
89.777Samuel SchlegelmOpen Men0:59:10,92
90.983Charli AndrewwOpen Ladies0:59:31,78
91.981Debbie TylerwOpen Ladies0:59:37,79
92.824Samantha SevenhuysenwOpen Ladies0:59:50,60
93.982Karyn AndrewwOpen Ladies1:00:17,01
94.682Kelly UttingwOpen Ladies1:00:30,47
95.966Sam McConnellwOpen Ladies1:00:45,30
96.851Kevin DinsdalemSenior Men 50+1:00:56,28
97.719Fiona SuttonwOpen Ladies1:01:46,70
98.865Shelley SmythewOpen Ladies1:01:52,58
99.888Catherine GrbicwOpen Ladies1:02:04,17
100.871Taylah EdwardswGirls U161:02:57,51
101.565Mel EdwardswOpen Ladies1:02:57,59
102.929Rebecca UnderwoodwOpen Ladies1:03:07,63
103.681Ryan PolemOpen Men1:03:51,83
104.524CASEY MIDDLEMASTwOpen Ladies1:04:31,50
105.857Michael Ah-FyemOpen Men1:05:01,95
106.674Melissa LadbrokewOpen Ladies1:05:20,62
107.465Danielle GrisctiwOpen Ladies1:05:32,88
108.820Beth CarpenterwOpen Ladies1:05:52,49
109.994Tom GibsonmSenior Men 50+1:06:09,47
110.750Handriecks ChidzanjamOpen Men1:06:28,52
111.783Juma GatbelmOpen Men1:06:32,45
112.672Frankie PalermomOpen Men1:06:54,09
113.704Erin TremewenwOpen Ladies1:06:54,47
114.464Jenny PhillipswOpen Ladies1:07:11,98
115.422Eliza SilvawOpen Ladies1:07:21,41
116.895Cain HilliermOpen Men1:07:24,30
117.894Nicole CareywOpen Ladies1:07:24,43
118.671Rhonda TrengrovewSenior Ladies 50+1:07:30,53
119.493Jodie HoganwOpen Ladies1:07:33,82
120.460Jacqueline PeazoldwSenior Ladies 50+1:07:33,95
121.842Bridie TippettwOpen Ladies1:07:50,31
122.864Sarah MarkswOpen Ladies1:07:50,45
123.438Saurav BanerjeemOpen Men1:08:08,12
124.695Michelle JameswOpen Ladies1:08:15,79
125.435Leanne MarranwOpen Ladies1:08:34,41
126.419Martine VineywOpen Ladies1:08:42,09
127.488Daniel FundermOpen Men1:09:36,83
128.902Kylie FludewOpen Ladies1:10:45,93
129.683Tracey BrennanwOpen Ladies1:10:50,16
130.599Rebekah LynesswOpen Ladies1:11:32,58
131.586Debbie CentonzawSenior Ladies 50+1:11:32,80
132.813Helen MyallwSenior Ladies 50+1:13:10,02
133.564Tracie O'BrienwOpen Ladies1:14:25,04
134.726Jenny EricksenwSenior Ladies 50+1:15:29,90
135.652Jasmin BishopwOpen Ladies1:16:34,76
136.634Trudy RandellwOpen Ladies1:19:00,16
137.629Natascha MazurekwOpen Ladies1:19:00,16
138.459Maxine BabewOpen Ladies1:20:14,73
139.626Vicki ThompsonwSenior Ladies 50+1:28:36,83
140.610Daniel EdwardsmOpen Men1:31:26,37
141.725Amber EricksenwOpen Ladies1:31:40,43
5Km Run
1.885Paul WilsonmOpen Men0:17:37,28
2.963Graham BergrothmOpen Men0:18:03,88
3.506BAILEY MORRELLmBoys U160:19:19,72
4.922Susanne HuelswSenior Ladies 50+0:20:13,56
5.879Michael HandimBoys U160:20:42,91
6.463Bill BarrymOpen Men0:20:49,67
7.882Otr KapourmBoys U160:21:01,17
8.675Jarrod Buckley-CookmOpen Men0:21:10,53
9.874Noel LawrencemBoys U160:21:25,61
10.838David O'ConnormOpen Men0:21:52,41
11.532DANIEL STORMmOpen Men0:21:54,36
12.923Wilson BarrymBoys U160:21:57,35
13.514WILL LEWISmBoys U160:21:57,81
14.896Tyler HusseymOpen Men0:22:37,11
15.507LEISA MORRELLwOpen Ladies0:22:38,67
16.679Bri SherrywGirls U160:22:48,45
17.931Hayley SillekenswGirls U160:23:16,24
18.876Matt KanemBoys U160:23:51,49
19.875Jerry AlengardenmBoys U160:23:51,55
20.880Riley LantingmBoys U160:24:43,47
21.450Belle HannanwOpen Ladies0:24:45,80
22.728Corey SimmonsmOpen Men0:25:01,13
23.974Marcus MiddelhausmOpen Men0:25:05,12
24.925Vikki BergmanwOpen Ladies0:25:52,05
25.804Lee AartsmOpen Men0:25:53,42
26.489Shane NormanmOpen Men0:26:28,12
27.873Sophie GraywGirls U160:26:37,34
28.625Trotter RobmSenior Men 50+0:26:56,18
29.899Brenda WattswSenior Ladies 50+0:26:59,44
30.1000Simon DowermOpen Men0:27:03,95
31.960Osman SobriemSenior Men 50+0:27:21,08
32.883Chloe MaaswOpen Ladies0:27:26,66
33.987Madeleine HowittwOpen Ladies0:27:29,22
34.807Shan FloydwSenior Ladies 50+0:27:32,82
35.927Harry UnderwoodmBoys U160:27:48,84
36.848John BoodemSenior Men 50+0:27:53,70
37.881Josh LantingmOpen Men0:28:02,03
38.992Skylar HayneswGirls U160:28:45,22
39.517LINDSAY SMITHmSenior Men 50+0:28:50,72
40.680Kai SherrymBoys U160:28:57,98
41.676Damien SherrymOpen Men0:28:59,54
42.540PETER WRIGHTmSenior Men 50+0:29:02,72
43.850Kate TurnerwOpen Ladies0:29:14,78
44.730Adam PORETTImOpen Men0:29:19,54
45.711Kimm DaviesmBoys U160:29:43,64
46.855Lyndal DavieswOpen Ladies0:29:53,50
47.847Ingrid SneedonwSenior Ladies 50+0:30:01,07
48.763Isa WilliemBoys U160:30:05,09
49.812Sue NorthwSenior Ladies 50+0:30:09,39
50.872Bailey EdwardsmBoys U160:30:26,69
51.926Raiden BergmanmBoys U160:30:32,47
52.849Julie ThomaswOpen Ladies0:30:53,74
53.709Pia DavieswOpen Ladies0:30:56,89
54.803Chantelle AartswOpen Ladies0:31:03,44
55.468Shaun O'lynnmOpen Men0:31:04,66
56.870Will BoodemBoys U160:31:09,39
57.968Stacey WoodfieldwOpen Ladies0:31:10,02
58.834David NuskemOpen Men0:31:11,94
59.791Jenelle McmurtriewOpen Ladies0:31:21,89
60.490Breann MoodywOpen Ladies0:31:27,46
61.924Chelsea MillswGirls U160:31:29,65
62.631Seth PrattmBoys U160:31:31,61
63.630Melissa PeterswOpen Ladies0:31:31,94
64.862Neil WalshmSenior Men 50+0:31:32,47
65.505Peter SandersmSenior Men 50+0:31:38,69
66.971Karen DavieswOpen Ladies0:31:39,95
67.972Heidi WilligwOpen Ladies0:31:56,88
68.509PATRICIA LEWISwOpen Ladies0:31:59,01
69.476Sarah AdamsonwOpen Ladies0:32:04,38
70.718Rachel MannwGirls U160:32:12,67
71.717Nicole MannwOpen Ladies0:32:12,79
72.928Riley SutherlandmBoys U160:32:22,47
73.477Caitlin SampimonwOpen Ladies0:32:32,41
74.856Melanie NancewOpen Ladies0:32:40,50
75.809Nicolle WitherswOpen Ladies0:32:44,65
76.962Sarah Parkitnyw0:32:48,75
77.632Tim PrattmOpen Men0:32:57,01
78.816Laura KentwOpen Ladies0:32:57,25
79.839Sara O'ConnorwOpen Ladies0:33:15,37
80.628Mark TeaguemOpen Men0:33:24,52
81.891Emily HudsonwOpen Ladies0:33:25,10
82.821Melanie RitchiewOpen Ladies0:33:32,34
83.808Renee GraywOpen Ladies0:33:32,43
84.765Calvin WilliemBoys U160:33:36,96
85.744Serge CoutymSenior Men 50+0:33:52,99
86.623Anita PoultonwOpen Ladies0:33:53,65
87.516SAM LEWISmBoys U160:34:02,75
88.998Charli LambertwGirls U160:34:14,39
89.479Paul LambertmOpen Men0:34:15,27
90.859Ann WaycottwSenior Ladies 50+0:34:16,53
91.624Neil PoultonmOpen Men0:34:30,69
92.837Liz RodgerwOpen Ladies0:34:32,68
93.761Cameron SamuelmOpen Men0:34:49,78
94.762Miria SamuelwOpen Ladies0:34:50,10
95.633Dylen GrimstedmBoys U160:34:53,61
96.826Ava SevenhuysenwGirls U160:34:55,65
97.878Freya MarchettiwGirls U160:34:56,30
98.889Natalie NelsonwOpen Ladies0:34:59,57
99.770Isabelle MillienwOpen Ladies0:35:08,43
100.500Chrissy LloydwOpen Ladies0:35:13,94
101.496Sharon DaltonwOpen Ladies0:35:14,22
102.836Palolo LafaitelewOpen Ladies0:35:48,16
103.700Sheree StrkwOpen Ladies0:35:49,76
104.832Maddy BeveridgewGirls U160:35:51,08
105.961Meagan ShawwOpen Ladies0:36:02,20
106.523JUDIE RUNDLEwSenior Ladies 50+0:36:03,53
107.997Morgan LambertmBoys U160:36:09,33
108.478Claire LambertwOpen Ladies0:36:10,00
109.866Stephanie MobbswOpen Ladies0:36:13,71
110.502Tiana StoreywGirls U160:36:19,17
111.869Nic BoodemBoys U160:36:24,32
112.831Kayla BeveridgewGirls U160:36:34,32
113.830Darren BeveridgemOpen Men0:36:36,23
114.999Grace EmpragewOpen Ladies0:36:40,99
115.867Melissa BaronwOpen Ladies0:36:40,99
116.775Auxilla MadhuvuwOpen Ladies0:36:41,01
117.841Anne HamiltonwSenior Ladies 50+0:36:41,17
118.768Blessing GaziwOpen Ladies0:36:52,56
119.835Jody LawsonwOpen Ladies0:37:05,28
120.779Lucky MasundamOpen Men0:37:11,92
121.751Junior ChidzanjawOpen Ladies0:37:30,66
122.811Liz WahlwOpen Ladies0:37:35,38
123.774Venessa JenningswOpen Ladies0:38:07,14
124.752Monica DejiokwOpen Ladies0:38:07,22
125.729Carolyn PORETTIwOpen Ladies0:38:21,24
126.543MITCHELL PORETTImBoys U160:38:21,50
127.852Lasi IerirowOpen Ladies0:38:42,03
128.854Lisa DumicichwOpen Ladies0:38:47,85
129.863Renee BroadbentwOpen Ladies0:38:55,93
130.654Belinda HayneswOpen Ladies0:39:07,41
131.677Kerri SherrywOpen Ladies0:39:13,28
132.562Lauren BeckettwOpen Ladies0:39:31,14
133.904Alarna SewellwOpen Ladies0:40:11,84
134.548MOLLIE MCNAMARAwGirls U160:40:18,19
135.444Nicole ToppwOpen Ladies0:40:18,94
136.545DEB MCNAMARAwOpen Ladies0:40:48,07
137.645Colette KennaughwOpen Ladies0:40:49,58
138.639Brad KennaughmOpen Men0:40:50,52
139.547RONAN MCNAMARAmBoys U160:40:56,64
140.447Kim AllenwOpen Ladies0:41:20,06
141.990Zivanja CopseywOpen Ladies0:41:20,12
142.833Rylee BeveridgewGirls U160:41:27,58
143.829Kelly BeveridgewOpen Ladies0:41:27,90
144.844Carol McKaywOpen Ladies0:41:47,17
145.969Tara JenningswGirls U160:42:32,01
146.853Lisa FullerwOpen Ladies0:43:01,43
147.638Kristen HilderwOpen Ladies0:43:07,29
148.767Lydia AlfredwGirls U160:43:47,52
149.958Renee CaswellwOpen Ladies0:44:47,04
150.635Bonny PeacheywOpen Ladies0:44:52,90
151.492Michael HaworthmOpen Men0:45:44,90
152.428Megan ParisewOpen Ladies0:47:51,01
153.425Chantal BeniswOpen Ladies0:47:51,18
154.743Lulu GaziwGirls U160:48:15,55
155.827Peter SevenhuysenmSenior Men 50+0:48:54,12
156.659Kody HaynesmBoys U160:49:25,92
157.662Shelby HayneswGirls U160:49:33,77
158.959Denee LalouettemOpen Men0:50:15,46
159.780Pjephi MasundawOpen Ladies0:55:37,47
160.544TOBY PORETTImBoys U160:56:05,73
161.868Jackie BoodewSenior Ladies 50+0:56:43,99
162.736Lachlan PORETTImBoys U160:57:49,76
163.782Natalie MasundawOpen Ladies1:04:15,65
164.754Claudia SaderwOpen Ladies1:08:08,63
165.756Shanandoah SchafferswOpen Ladies1:08:32,87
166.789Kojo AkomeahmOpen Men1:08:52,31
167.781Bradaon MasundamBoys U161:13:13,36
168.414Angela HalfpennywOpen Ladies0:17:49,31
5Km Walk
1.692Linuki HerathwGirls U160:37:31,12
2.979Allan MorrismOpen Men0:38:04,68
3.967Katie JenningswOpen Ladies0:38:32,39
4.978Breannah MorriswOpen Ladies0:38:57,30
5.694Dinuga HerathmBoys U160:38:59,01
6.691Chamari HewathondilagewOpen Ladies0:40:24,65
7.539SUE DALTONwSenior Ladies 50+0:42:38,73
8.860Michelle HowardwSenior Ladies 50+0:43:29,04
9.906Veena ManniewOpen Ladies0:44:22,33
10.794ANDREA VINCENTwOpen Ladies0:45:57,56
11.793JOANNE DRUMMONDwOpen Ladies0:45:57,62
12.518MELANIE SMITHwSenior Ladies 50+0:48:25,12
13.828Ann SevenhuysenwSenior Ladies 50+0:48:53,66
14.537ALEXANDRA GRANTwGirls U160:49:31,65
15.534ANDREW GRANTmOpen Men0:49:31,77
16.595Kelly-Anne CentonzawOpen Ladies0:49:33,70
17.689Shubham PandeymBoys U160:49:58,69
18.597Stan WaitesmSenior Men 50+0:50:01,55
19.470Linda ReidwSenior Ladies 50+0:50:45,31
20.415Lisa Furnival-MonkwOpen Ladies0:51:29,73
21.418Julie FurnivalwSenior Ladies 50+0:51:29,81
22.688Shobha SinghwOpen Ladies0:51:41,75
23.410Kathy BurgstahlerwSenior Ladies 50+0:51:56,37
24.714Eli DaviesmBoys U160:54:02,85
25.715Michael DaviesmOpen Men0:54:04,49
26.973Lisa CollettwOpen Ladies0:56:12,13
27.976Lynn RichardswSenior Ladies 50+0:57:21,27
28.932Jessica RichardswOpen Ladies0:57:21,49
29.536CAROLINE GRANTwOpen Ladies0:57:37,63
30.538LEXI GRANTwGirls U160:57:37,85
31.432Tracey WinchwOpen Ladies0:57:48,83
32.431Jo RobertsonwSenior Ladies 50+0:57:49,73
33.574Izabelle CailewGirls U160:58:02,22
34.620Thomas EdwardsmBoys U160:58:04,57
35.578Felicity CailewGirls U160:58:08,77
36.621Ella EdwardswGirls U160:58:11,06
37.566Michelle PeterswOpen Ladies0:58:45,70
38.619Catherine EdwardswOpen Ladies0:58:46,87
39.748Dorah NkomowOpen Ladies1:00:03,33
40.759Matteo SchaffermBoys U161:03:05,87
41.787Daniel JenningsmBoys U161:03:06,98
42.784Nyamar GatkuothwGirls U161:08:08,63
43.760Eden SchafferwGirls U161:08:34,79
44.755Ricardo SchaffersmOpen Men1:08:35,14
45.785Thouy GatkuothwGirls U161:08:49,17
46.788Marissa Jenningsw1:08:52,77
47.786Sean JenningsmOpen Men1:08:53,03
48.746Lulu NkomowGirls U161:08:59,44
49.771Valerie MillienwGirls U161:09:11,26
Number of records: 358